TimeEDT,TemperatureF,Dew PointF,Humidity,Sea Level PressureIn,VisibilityMPH,Wind Direction,Wind SpeedMPH,Gust SpeedMPH,PrecipitationIn,Events,Conditions,WindDirDegrees,DateUTC
12:53 AM,28.0,12.0,51,29.71,10.0,WSW,4.6,-,N/A,,Clear,250,2013-03-22 04:53:00
1:53 AM,28.0,12.0,51,29.72,10.0,WSW,3.5,-,N/A,,Partly Cloudy,240,2013-03-22 05:53:00
2:53 AM,27.0,12.0,53,29.71,10.0,WSW,3.5,-,N/A,,Partly Cloudy,250,2013-03-22 06:53:00
3:53 AM,26.1,12.9,58,29.70,10.0,WSW,4.6,-,N/A,,Clear,250,2013-03-22 07:53:00
4:53 AM,26.1,14.0,60,29.70,10.0,Calm,Calm,-,N/A,,Clear,0,2013-03-22 08:53:00
5:53 AM,24.1,16.0,71,29.71,10.0,Calm,Calm,-,N/A,,Partly Cloudy,0,2013-03-22 09:53:00
6:53 AM,26.1,16.0,66,29.72,10.0,Calm,Calm,-,N/A,,Partly Cloudy,0,2013-03-22 10:53:00
7:53 AM,28.0,17.1,63,29.73,10.0,SSW,3.5,-,N/A,,Clear,210,2013-03-22 11:53:00
8:53 AM,30.0,19.0,64,29.75,10.0,SSW,9.2,-,N/A,,Clear,210,2013-03-22 12:53:00
9:53 AM,34.0,19.0,54,29.74,10.0,WSW,10.4,-,N/A,,Partly Cloudy,250,2013-03-22 13:53:00
10:53 AM,35.1,17.1,48,29.74,10.0,WNW,12.7,20.7,N/A,,Mostly Cloudy,300,2013-03-22 14:53:00
11:53 AM,36.0,18.0,48,29.75,10.0,West,12.7,19.6,N/A,,Overcast,270,2013-03-22 15:53:00
12:53 PM,39.0,19.0,45,29.75,10.0,West,11.5,25.3,N/A,,Overcast,270,2013-03-22 16:53:00
1:53 PM,39.0,19.0,45,29.74,10.0,WSW,13.8,23.0,N/A,,Overcast,250,2013-03-22 17:53:00
2:53 PM,37.0,19.9,50,29.74,3.0,West,15.0,23.0,0.00,Snow,Light Snow,270,2013-03-22 18:53:00
3:53 PM,39.0,19.0,45,29.73,9.0,West,10.4,-,0.00,,Unknown,270,2013-03-22 19:53:00
4:53 PM,37.9,19.9,48,29.75,10.0,West,12.7,23.0,0.00,,Overcast,260,2013-03-22 20:53:00
5:53 PM,39.0,19.0,45,29.76,10.0,West,16.1,21.9,N/A,,Overcast,270,2013-03-22 21:53:00
6:53 PM,37.9,21.0,51,29.78,10.0,West,13.8,23.0,N/A,,Overcast,270,2013-03-22 22:53:00
7:53 PM,37.0,19.9,50,29.81,10.0,West,12.7,-,N/A,,Overcast,270,2013-03-22 23:53:00
8:53 PM,36.0,21.0,55,29.84,10.0,West,9.2,-,N/A,,Overcast,270,2013-03-23 00:53:00
9:53 PM,36.0,21.9,57,29.84,10.0,West,10.4,-,N/A,,Mostly Cloudy,260,2013-03-23 01:53:00
10:53 PM,36.0,21.9,57,29.83,10.0,West,10.4,-,N/A,,Overcast,270,2013-03-23 02:53:00
11:53 PM,35.1,21.0,57,29.83,10.0,West,8.1,-,N/A,,Scattered Clouds,260,2013-03-23 03:53:00